Buffalo, NY

3:03 PM EST on January 24, 2017 (GMT -0500)
Buffalo Niagara International

Weather History for KBUF - March, 2012

Change the Weather History Date:

Saturday, March 10, 2012

  Actual Average Record
Temperature  
Mean Temperature 30 °F 32 °F  
Max Temperature 39 °F 40 °F 68 °F (1878)
Min Temperature 20 °F 24 °F 5 °F (1984)
Degree Days  
Heating Degree Days 35 33  
Month to date heating degree days 282 346  
Since 1 July heating degree days 4235 5090  
Cooling Degree Days 0 0  
Month to date cooling degree days 0 0  
Year to date cooling degree days 0 0  
Moisture  
Dew Point 13 °F    
Average Humidity 57    
Maximum Humidity 74    
Minimum Humidity 40    
Precipitation  
Precipitation T in 0.08 in 0.89 in (2011)
Month to date precipitation 0.98 0.90  
Year to date precipitation 7.13 6.57  
Snow  
Snow T in 0.50 in 7.80 in (1964)
Month to date snowfall 0.9 5.3  
Since 1 July snowfall 35.1 84.1  
Snow Depth T in    
Sea Level Pressure  
Sea Level Pressure 30.47 in    
Wind  
Wind Speed 8 mph (West)    
Max Wind Speed 21 mph    
Max Gust Speed 29 mph    
Visibility 10 miles    
Events Snow    
T = Trace of Precipitation, MM = Missing Value Source: NWS Daily Summary

Daily Weather History Graph

Daily Weather History Graph

Search for Another Location

Airport or City:

Trip Planner

Search our weather history database for the weather conditions in past years. The results will help you decide how hot, cold, wet, or windy it might be!

Date:

Astronomy

Mar. 10, 2012 Rise Set
Actual Time 6:34 AM EST 6:15 PM EST
Civil Twilight 6:06 AM EST 6:44 PM EST
Nautical Twilight 5:33 AM EST 7:17 PM EST
Astronomical Twilight 5:00 AM EST 7:50 PM EST
Moon 9:32 PM EST (3/10) 7:23 AM EST (3/10)
Length of Visible Light 12h 37m
Length of Day
11h 41m
Waning Gibbous, 93% of the Moon is Illuminated
Mar 10
Waning Gibbous
Mar 14
Last Quarter
Mar 22
New
Mar 30
First Quarter
Apr 6
Full

Hourly Weather History & Observations

Time (EST) Temp. Windchill Dew Point Humidity Pressure Visibility Wind Dir Wind Speed Gust Speed Precip Events Conditions
12:08 AM 23.0 °F 9.2 °F 12.2 °F 63% 30.40 in 10.0 mi WNW 17.3 mph 24.2 mph 0.00 in Snow Light Snow
12:54 AM 23.0 °F 12.4 °F 8.1 °F 53% 30.45 in 10.0 mi WNW 10.4 mph 19.6 mph 0.00 in   Scattered Clouds
1:54 AM 21.9 °F 9.8 °F 9.0 °F 58% 30.47 in 10.0 mi NW 12.7 mph - N/A   Partly Cloudy
2:54 AM 21.9 °F 13.4 °F 10.0 °F 60% 30.49 in 10.0 mi NW 6.9 mph 16.1 mph N/A   Mostly Cloudy
3:54 AM 21.9 °F 9.8 °F 12.0 °F 66% 30.50 in 8.0 mi NNW 12.7 mph - 0.00 in Snow Light Snow
4:16 AM 21.2 °F 8.3 °F 10.4 °F 63% 30.48 in 8.0 mi NNW 13.8 mph - 0.00 in Snow Light Snow
4:54 AM 21.9 °F 10.4 °F 10.9 °F 63% 30.52 in 10.0 mi NNW 11.5 mph - 0.00 in   Mostly Cloudy
5:54 AM 21.0 °F 12.4 °F 12.0 °F 68% 30.55 in 10.0 mi NW 6.9 mph - N/A   Mostly Cloudy
6:13 AM 21.2 °F 12.6 °F 12.2 °F 68% 30.50 in 10.0 mi North 6.9 mph - N/A   Scattered Clouds
6:54 AM 21.0 °F 13.4 °F 12.0 °F 68% 30.56 in 10.0 mi North 5.8 mph - N/A   Scattered Clouds
7:54 AM 21.9 °F 14.5 °F 12.9 °F 68% 30.58 in 10.0 mi North 5.8 mph - N/A   Scattered Clouds
8:27 AM 21.2 °F 14.9 °F 12.2 °F 68% 30.56 in 10.0 mi NNW 4.6 mph - N/A   Mostly Cloudy
8:54 AM 21.9 °F - 12.0 °F 66% 30.61 in 10.0 mi Calm Calm - N/A   Mostly Cloudy
9:54 AM 24.1 °F 18.2 °F 12.9 °F 62% 30.61 in 10.0 mi South 4.6 mph - N/A   Mostly Cloudy
10:24 AM 24.8 °F 19.1 °F 12.2 °F 59% 30.56 in 10.0 mi WSW 4.6 mph - N/A   Mostly Cloudy
10:54 AM 26.1 °F 18.4 °F 14.0 °F 60% 30.58 in 10.0 mi WSW 6.9 mph - N/A   Mostly Cloudy
11:54 AM 28.0 °F 20.8 °F 9.0 °F 45% 30.56 in 10.0 mi West 6.9 mph - N/A   Mostly Cloudy
12:54 PM 30.0 °F 23.2 °F 14.0 °F 51% 30.52 in 10.0 mi SW 6.9 mph - N/A   Mostly Cloudy
1:54 PM 30.9 °F 25.2 °F 14.0 °F 50% 30.50 in 10.0 mi SSW 5.8 mph - N/A   Mostly Cloudy
2:54 PM 32.0 °F 27.5 °F 12.9 °F 45% 30.47 in 10.0 mi SW 4.6 mph - N/A   Mostly Cloudy
3:54 PM 33.1 °F 26.9 °F 15.1 °F 48% 30.44 in 10.0 mi SSW 6.9 mph - N/A   Mostly Cloudy
4:54 PM 35.1 °F 28.6 °F 16.0 °F 46% 30.41 in 10.0 mi SSW 8.1 mph - N/A   Mostly Cloudy
5:54 PM 34.0 °F 27.2 °F 18.0 °F 52% 30.38 in 10.0 mi SSW 8.1 mph - N/A   Scattered Clouds
6:54 PM 33.1 °F 26.1 °F 19.0 °F 56% 30.34 in 10.0 mi South 8.1 mph - N/A   Scattered Clouds
7:54 PM 36.0 °F 28.0 °F 17.1 °F 46% 30.30 in 10.0 mi South 11.5 mph - N/A   Scattered Clouds
8:54 PM 37.9 °F 28.5 °F 17.1 °F 43% 30.28 in 10.0 mi SSW 17.3 mph - N/A   Scattered Clouds
9:54 PM 37.9 °F 30.0 °F 17.1 °F 43% 30.30 in 10.0 mi SSW 12.7 mph 19.6 mph N/A   Scattered Clouds
10:54 PM 39.0 °F 33.4 °F 17.1 °F 41% 30.32 in 10.0 mi WSW 8.1 mph - N/A   Partly Cloudy
11:54 PM 37.9 °F 31.5 °F 18.0 °F 45% 30.31 in 10.0 mi SW 9.2 mph - N/A   Partly Cloudy